Location: Chervonnoye
(48.6000°N, 34.4000°E)
Time: 06:40:37
(UTC+00:00)

Nadezhda 1 Rocket - Pass Details

Date: 17 April 2021
Orbit: 940 x 1006 km, 83.0° (Epoch: 13 May)

Event Time Altitude Azimuth Distance (km) Brightness Sun altitude
Exits shadow 22:02:17 52° 94° (E) 1,234 4.4 -30.4°
Maximum altitude 22:02:22 52° 91° (E) 1,233 4.4 -30.4°
Drops below altitude 10° 22:08:32 10° 17° (NNE) 2,786 7.3 -30.3°
Sets 22:11:08 0° 13° (NNE) 3,734 8.2 -30.2°
